Wind_Speed
15 16 18 20 22 24 25 27 29 32 34 37 37 36 35 35 34 33 31 31 30 29 29 34 34 33 35 36 37 39 41 40 40 52 41 43 45 48 49 52 50 49 49
17 18 20 23 25 26 27 29 31 33 34 34 34 35 36 36 34 33 33 28 31 37 38 35 32 30 31 34 37 39 41 42 41 44 49 42 42 44 50 53 53 54 54
19 21 22 24 25 27 29 30 31 31 31 32 32 33 33 33 34 34 29 33 37 36 32 27 30 33 38 39 37 37 40 42 43 40 47 44 41 42 43 47 50 53 50
22 24 25 25 25 26 27 29 31 31 32 33 33 33 32 33 33 32 35 36 38 34 29 30 35 36 37 35 34 34 35 37 38 39 40 41 40 39 36 40 43 45 50
22 22 21 22 25 27 29 30 30 31 31 32 34 34 33 33 33 33 36 39 38 34 34 36 38 37 35 26 33 36 35 40 42 39 40 40 40 36 38 40 44 44 45
20 20 22 25 27 28 29 29 29 30 30 31 32 33 35 35 32 33 35 38 31 32 38 40 39 40 34 35 35 33 33 33 36 38 41 39 41 42 41 41 40 41 35
18 20 22 25 26 27 28 29 29 31 32 33 33 33 33 33 32 30 33 28 35 37 40 44 43 38 37 40 39 39 41 36 33 37 40 41 40 40 38 41 39 40 44
21 23 24 25 27 28 29 30 32 32 34 34 34 33 34 33 28 29 29 41 45 45 41 45 38 37 42 38 41 45 45 44 43 40 40 44 43 43 38 43 47 43 47
23 24 25 26 28 29 31 32 32 34 35 35 33 33 31 28 28 32 38 42 41 40 38 34 32 38 38 36 40 44 44 50 45 43 43 45 43 42 39 40 42 38 37
24 24 25 26 27 29 30 32 34 34 35 34 35 31 29 27 33 34 33 35 37 37 37 38 36 36 39 40 40 40 45 46 48 50 50 45 40 36 35 39 36 33 34
24 25 26 26 28 30 32 32 34 35 36 36 36 34 30 30 35 32 32 32 34 36 37 38 41 44 43 42 38 36 37 41 43 45 42 39 35 35 31 30 29 25 32
24 26 27 29 30 31 32 34 35 36 36 37 36 34 33 34 34 31 31 30 32 37 38 41 43 44 39 37 33 34 36 38 38 41 39 36 33 30 27 26 25 25 25
26 28 30 31 31 32 33 35 36 36 35 36 32 34 37 39 36 35 32 34 37 37 37 38 40 36 33 33 31 33 36 40 39 39 37 35 32 30 27 24 22 19 18
29 31 32 33 34 33 34 35 35 34 33 31 33 35 36 37 37 36 37 41 39 39 38 43 36 33 32 32 34 37 40 39 39 37 36 32 29 28 23 19 15 9 12
30 32 33 33 33 35 37 37 35 33 26 30 33 34 35 36 36 34 36 36 36 35 38 37 36 38 38 39 37 40 40 42 41 39 35 31 28 25 21 15 11 12 16
32 32 31 32 34 38 39 40 36 32 30 27 28 27 30 29 30 34 33 33 31 35 35 31 37 38 36 38 39 42 43 43 42 40 31 27 25 23 19 12 11 10 11
30 31 32 33 35 37 37 35 38 42 34 30 27 27 28 29 33 33 31 29 33 32 34 31 37 38 38 38 40 41 44 45 43 36 29 24 20 18 13 11 10 9 11
28 28 30 34 35 35 34 33 33 36 37 39 35 30 29 31 32 31 30 31 38 37 33 34 39 39 36 39 42 44 40 44 41 33 28 22 16 11 10 9 10 10 11
28 30 31 33 33 30 32 33 33 32 34 36 38 36 34 33 31 30 29 32 34 37 35 39 40 39 37 39 44 41 39 43 37 30 25 19 13 8 6 6 8 9 9
30 31 29 31 31 32 31 31 32 33 34 35 35 35 37 37 35 35 35 34 34 35 38 41 42 37 36 42 42 40 40 42 33 27 22 16 10 4 2 6 7 8 8
32 33 30 32 29 31 31 31 33 33 32 35 35 35 31 33 36 37 32 32 34 35 39 40 40 36 40 41 40 39 38 37 28 22 17 11 6 2 5 7 8 8 7
31 32 30 30 32 32 30 31 32 33 34 34 35 35 30 34 33 32 30 33 34 35 36 38 37 35 39 40 39 37 34 31 21 16 11 7 4 5 7 8 8 7 7
29 30 33 34 32 30 34 32 35 34 34 33 32 33 34 32 31 30 31 32 34 34 35 36 36 38 36 37 35 31 28 22 15 9 7 5 5 6 8 9 8 7 8
31 33 33 32 32 31 33 34 32 32 30 31 33 32 31 30 31 30 29 31 31 32 34 36 36 35 36 36 32 25 21 13 7 6 7 5 6 9 9 8 8 9 7
34 35 34 33 33 33 33 32 31 31 32 30 31 30 30 30 28 30 30 30 30 32 34 35 33 33 35 33 26 20 13 6 7 9 8 8 9 10 8 9 11 9 8
36 34 34 33 31 31 30 31 31 30 31 31 30 31 30 30 28 28 29 29 30 30 34 33 32 31 33 28 20 13 6 8 11 10 10 10 10 10 11 11 12 12 16
Wind_Direction
342 341 338 335 331 329 327 324 323 322 323 324 324 324 324 324 323 320 317 316 318 316 310 311 308 304 301 301 300 298 297 295 288 292 288 286 279 279 278 279 275 274 275
338 335 330 325 321 318 318 320 321 322 321 322 322 322 323 324 324 325 324 324 320 314 313 314 313 314 309 306 305 304 300 298 297 292 294 291 287 284 280 279 278 273 273
331 326 323 325 325 325 326 326 325 325 324 323 323 323 324 324 325 326 328 317 317 316 318 314 313 315 312 310 306 301 300 298 297 293 291 293 291 289 285 279 277 275 264
324 322 324 325 328 330 329 327 326 326 325 324 323 321 320 319 321 324 320 321 320 320 315 313 316 319 316 312 310 309 307 304 302 298 292 289 292 293 285 282 279 281 281
324 326 330 330 329 330 329 330 330 330 329 327 326 323 321 319 322 319 318 318 321 320 317 318 315 315 316 319 313 310 303 301 305 305 301 300 289 289 291 290 285 285 278
323 326 328 328 331 332 333 335 336 334 334 332 331 327 325 322 317 316 320 323 320 313 314 314 317 315 317 315 317 313 311 304 302 303 300 296 294 292 294 291 291 279 261
323 326 328 331 333 336 338 338 338 336 334 332 330 328 324 321 321 321 328 313 321 321 318 315 315 313 310 316 317 314 312 312 302 298 295 292 294 291 294 290 296 292 275
325 328 332 335 336 337 338 338 336 334 331 328 328 327 323 319 320 329 314 313 314 315 315 311 313 311 312 317 320 315 311 315 315 307 301 298 293 293 289 287 283 286 283
326 330 334 336 335 335 335 333 332 330 328 330 328 327 325 322 324 318 311 312 313 317 320 317 319 313 317 316 316 312 314 315 317 311 306 305 300 293 292 292 286 285 273
328 330 332 332 332 330 330 331 331 329 328 329 328 329 326 321 316 319 323 320 322 323 323 322 318 314 312 313 312 313 311 310 309 307 302 300 300 299 295 289 288 276 261
326 327 329 330 329 330 330 331 331 330 331 331 329 331 331 320 321 321 323 323 323 321 323 320 320 316 313 314 312 310 308 310 308 307 308 307 306 302 296 295 294 291 258
324 325 327 328 330 330 331 333 332 331 332 331 331 326 322 323 325 326 327 324 322 320 320 322 322 317 319 316 312 310 315 319 314 318 320 319 318 316 310 305 298 292 270
323 325 326 327 329 333 333 332 332 332 331 330 325 322 322 328 330 332 328 324 323 325 321 321 318 320 317 313 319 318 324 324 326 321 319 320 324 319 311 303 301 283 262
322 323 326 328 330 331 332 332 329 328 328 325 320 319 320 322 325 330 326 329 328 326 329 322 322 320 319 318 326 334 331 326 327 324 323 324 324 311 300 293 277 242 193
320 323 325 325 327 329 330 329 326 324 320 319 318 319 320 321 324 322 325 325 325 330 324 321 328 328 331 333 333 336 330 331 329 332 325 324 319 303 296 279 240 187 172
321 322 323 323 327 328 327 324 322 324 322 320 318 319 318 316 320 322 323 322 329 332 327 328 330 332 330 330 327 329 332 329 333 331 327 325 318 301 293 265 226 205 178
319 319 319 323 324 323 323 324 323 326 325 325 325 325 324 320 322 322 322 329 330 334 341 333 330 331 329 327 329 329 330 331 332 333 332 330 322 307 285 245 206 185 157
316 316 318 320 320 323 323 320 317 319 321 325 333 328 326 324 324 324 327 330 336 340 343 333 329 329 325 326 328 333 336 330 335 335 333 331 325 301 280 233 199 180 155
318 319 321 320 318 317 316 320 319 318 316 321 325 329 332 328 326 326 330 335 336 337 337 333 330 329 327 328 334 338 338 331 335 335 335 332 328 298 279 205 177 161 149
318 320 318 317 318 319 320 318 315 315 318 321 319 320 329 328 326 330 330 331 334 336 334 332 333 333 331 333 339 338 340 333 337 338 338 342 346 335 205 160 149 136 133
317 318 320 317 323 323 316 311 315 316 314 314 319 324 321 321 323 325 324 326 334 334 331 331 332 333 333 337 339 339 340 337 336 340 343 352 357 77 120 127 129 123 109
318 318 321 321 321 319 314 314 311 314 316 316 317 321 319 320 327 328 325 328 330 330 329 331 331 332 337 337 339 339 340 336 338 345 350 6 48 97 113 114 112 102 90
317 320 321 321 317 313 314 315 314 313 314 315 314 315 318 323 327 325 327 326 326 326 328 332 334 336 336 339 339 339 341 336 342 355 12 48 78 104 109 104 93 90 79
320 318 315 311 311 310 308 311 311 311 311 311 314 318 322 324 325 326 327 327 327 326 331 335 335 336 338 340 340 341 341 341 1 47 64 71 100 103 95 93 93 78 68
311 312 312 312 310 309 309 309 308 307 310 316 319 321 322 323 323 326 327 327 325 327 333 334 336 339 340 341 342 349 347 15 66 82 88 96 105 102 96 86 73 70 78
309 310 311 312 312 312 311 311 312 315 317 319 321 322 322 322 323 326 325 326 326 328 331 334 338 342 343 344 351 356 10 59 85 89 97 104 101 96 89 85 80 77 90
Height
1473 1470 1468 1465 1462 1459 1455 1451 1446 1441 1436 1431 1426 1421 1417 1412 1408 1403 1398 1393 1388 1383 1380 1375 1369 1365 1360 1357 1354 1349 1343 1340 1334 1318 1324 1322 1318 1317 1314 1312 1311 1309 1308
1470 1468 1464 1461 1458 1453 1449 1445 1440 1436 1432 1426 1421 1416 1411 1407 1402 1398 1392 1388 1383 1378 1372 1368 1363 1359 1354 1349 1345 1341 1336 1332 1327 1317 1309 1308 1308 1305 1300 1299 1297 1295 1295
1468 1464 1461 1457 1453 1449 1444 1440 1435 1430 1426 1421 1416 1411 1405 1401 1396 1392 1388 1383 1378 1372 1367 1363 1357 1353 1348 1343 1338 1331 1328 1322 1317 1312 1300 1298 1295 1294 1290 1286 1284 1281 1279
1464 1461 1456 1452 1448 1444 1440 1436 1431 1426 1420 1415 1411 1406 1400 1395 1391 1387 1382 1376 1370 1365 1361 1357 1352 1347 1342 1336 1331 1324 1319 1314 1309 1303 1295 1289 1287 1283 1280 1275 1271 1269 1266
1461 1457 1453 1449 1445 1441 1436 1431 1426 1421 1416 1411 1405 1400 1395 1390 1387 1382 1376 1369 1363 1358 1354 1349 1345 1340 1336 1333 1327 1318 1313 1307 1300 1295 1289 1284 1276 1273 1271 1266 1260 1258 1253
1457 1453 1449 1445 1441 1437 1432 1427 1422 1418 1413 1407 1402 1396 1390 1385 1380 1377 1372 1364 1358 1353 1346 1342 1336 1332 1328 1322 1316 1312 1307 1302 1294 1290 1282 1275 1269 1267 1264 1260 1255 1249 1240
1454 1450 1446 1442 1438 1433 1429 1425 1419 1413 1408 1403 1399 1392 1386 1381 1376 1372 1365 1359 1354 1347 1342 1335 1330 1325 1320 1314 1305 1299 1294 1291 1289 1283 1274 1266 1261 1258 1255 1250 1245 1242 1233
1450 1445 1442 1437 1433 1430 1425 1420 1415 1409 1405 1399 1393 1387 1381 1377 1372 1366 1360 1353 1346 1341 1336 1330 1323 1318 1313 1308 1298 1290 1283 1277 1274 1270 1264 1255 1252 1247 1244 1240 1235 1230 1225
1446 1442 1438 1434 1429 1425 1421 1416 1411 1405 1400 1394 1389 1382 1376 1371 1368 1361 1355 1347 1339 1333 1328 1323 1318 1312 1307 1303 1295 1285 1276 1267 1263 1258 1251 1244 1239 1235 1232 1228 1221 1218 1212
1442 1438 1434 1431 1426 1422 1418 1413 1407 1402 1395 1390 1383 1377 1371 1366 1362 1356 1350 1343 1335 1329 1323 1317 1312 1306 1299 1294 1288 1280 1270 1263 1254 1243 1237 1231 1227 1221 1219 1215 1210 1204 1201
1439 1435 1431 1427 1423 1419 1413 1408 1402 1396 1389 1384 1379 1371 1365 1362 1356 1351 1345 1339 1332 1324 1317 1310 1304 1297 1290 1284 1279 1274 1266 1258 1247 1238 1228 1220 1216 1210 1205 1201 1197 1193 1190
1434 1430 1426 1422 1418 1413 1408 1402 1397 1391 1384 1378 1372 1366 1361 1356 1351 1345 1340 1335 1328 1320 1311 1304 1296 1290 1282 1275 1270 1265 1258 1249 1239 1229 1221 1212 1206 1200 1195 1190 1187 1184 1183
1430 1425 1421 1417 1412 1407 1403 1397 1391 1385 1380 1374 1368 1362 1355 1350 1344 1339 1334 1328 1321 1314 1306 1298 1291 1283 1275 1268 1262 1256 1248 1240 1232 1223 1215 1207 1201 1195 1190 1186 1182 1179 1178
1425 1420 1416 1411 1406 1402 1398 1393 1387 1381 1376 1371 1365 1358 1352 1346 1340 1335 1329 1321 1314 1306 1298 1290 1284 1277 1270 1263 1255 1248 1242 1234 1226 1218 1209 1202 1196 1191 1187 1184 1181 1178 1176
1420 1415 1410 1406 1401 1397 1392 1388 1382 1377 1374 1368 1361 1355 1348 1341 1336 1331 1325 1317 1310 1302 1294 1285 1277 1270 1262 1255 1248 1242 1236 1227 1219 1212 1204 1198 1193 1188 1185 1183 1181 1180 1179
1414 1410 1406 1401 1395 1391 1386 1379 1376 1372 1367 1363 1357 1352 1344 1339 1332 1327 1320 1313 1306 1299 1289 1282 1274 1267 1259 1251 1244 1235 1229 1222 1214 1207 1200 1194 1189 1185 1183 1182 1182 1183 1182
1409 1405 1400 1396 1390 1386 1381 1375 1366 1358 1359 1354 1350 1345 1340 1334 1328 1321 1315 1308 1301 1295 1287 1279 1271 1264 1256 1249 1242 1234 1224 1217 1210 1202 1196 1190 1186 1183 1182 1181 1183 1184 1185
1404 1400 1395 1390 1385 1380 1375 1370 1364 1357 1349 1344 1342 1339 1334 1328 1322 1316 1310 1302 1295 1289 1283 1276 1268 1261 1253 1246 1239 1230 1221 1213 1206 1199 1193 1187 1183 1182 1181 1182 1184 1185 1187
1398 1393 1388 1383 1379 1375 1370 1364 1359 1354 1348 1341 1335 1331 1327 1322 1316 1311 1306 1300 1293 1285 1279 1272 1265 1257 1250 1244 1235 1226 1218 1210 1203 1196 1190 1186 1183 1183 1182 1184 1186 1188 1190
1391 1387 1383 1378 1373 1369 1364 1359 1354 1349 1343 1338 1332 1328 1321 1315 1309 1304 1300 1295 1289 1283 1276 1268 1261 1254 1248 1240 1230 1222 1213 1207 1200 1194 1190 1186 1184 1184 1185 1187 1189 1191 1192
1384 1379 1376 1372 1367 1363 1358 1354 1348 1343 1338 1334 1328 1324 1320 1313 1306 1301 1295 1290 1285 1278 1272 1265 1257 1250 1244 1235 1227 1219 1211 1206 1200 1195 1191 1189 1188 1188 1190 1192 1193 1195 1196
1377 1373 1369 1365 1361 1357 1352 1348 1343 1338 1333 1328 1323 1318 1314 1309 1303 1297 1292 1286 1281 1275 1269 1262 1254 1248 1241 1232 1224 1217 1210 1205 1200 1196 1194 1193 1193 1194 1195 1196 1198 1198 1199
1371 1366 1362 1358 1354 1350 1345 1341 1336 1332 1327 1323 1318 1313 1308 1303 1298 1293 1288 1282 1277 1271 1265 1259 1252 1244 1238 1230 1223 1216 1209 1205 1202 1199 1197 1198 1199 1199 1200 1201 1202 1203 1203
1364 1360 1356 1352 1348 1344 1340 1335 1331 1327 1323 1318 1313 1308 1303 1298 1294 1289 1283 1278 1272 1267 1261 1255 1248 1241 1234 1227 1220 1215 1210 1206 1203 1201 1202 1203 1203 1204 1205 1206 1206 1206 1206
1358 1354 1350 1345 1341 1337 1332 1328 1325 1321 1317 1312 1307 1303 1298 1293 1289 1284 1279 1274 1269 1263 1257 1251 1245 1238 1231 1224 1218 1213 1210 1207 1205 1205 1206 1206 1208 1209 1210 1210 1210 1210 1209
1351 1347 1342 1338 1333 1329 1325 1321 1317 1314 1310 1305 1301 1297 1292 1288 1284 1280 1275 1270 1264 1259 1254 1248 1242 1236 1229 1223 1218 1214 1211 1209 1210 1210 1210 1212 1213 1214 1215 1215 1215 1214 1213